Home > Weather > Erie > Past weeks

Flag for USA Past Weather in Erie, Pennsylvania, USA — Yesterday and Last 2 Weeks

Now
72 °F

Sunny.


Feels Like: 77 °F
Forecast: 53 / 70 °F
Wind: 9 mph from West

Location: Erie International Airport

Current Time: May 24, 2016 at 1:50:33 PM

Latest Report: May 24, 2016 at 12:51 PM


Visibility: 10 mi

Pressure: 30.06 "Hg

Humidity: 44%

Dew Point: 49 °F

Location of ErieLocation

Past Weather in Erie — Graph

°F

Erie Temperature Yesterday

Maximum temperature yesterday: 67 °F (at 1:51 PM)
Minimum temperature yesterday: 47 °F (at 5:51 AM)
Average temperature yesterday: 59 °F

High & Low Weather Summary for the Past Weeks

 TemperatureHumidityPressure
High78 °F (May 12, 1:51 PM)97% (May 13, 2:51 AM)30.28 "Hg (May 13, 2:51 AM)
Low37 °F (May 15, 9:55 AM)29% (May 16, 4:51 PM)29.59 "Hg (May 14, 9:51 AM)
Average56 °F65%30.05 "Hg
* Reported May 9 11:51 AM — May 24 11:51 AM, Erie, Weather by CustomWeather, © 2016

Note: Actual official high and low records may vary slightly from our data, if they occured in-between our weather recording intervals... More about our weather records

Advertising

Erie Weather History for the Previous 24 Hours

Scroll right to see more
 ConditionsComfort  
Time TempWeatherWind HumidityBarometerVisibility
11:51 AM
Tue, May 24
71 °FSunny.13 mph44%30.07 "Hg10 mi
10:51 AM70 °FSunny.14 mph44%30.07 "Hg10 mi
9:51 AM69 °FSunny.7 mph42%30.07 "Hg10 mi
8:51 AM66 °FSunny.6 mph50%30.05 "Hg10 mi
7:51 AM58 °FSunny.7 mph67%30.04 "Hg10 mi
6:51 AM53 °FSunny.3 mph74%30.03 "Hg10 mi
5:51 AM50 °FClear.6 mph80%30.02 "Hg10 mi
4:51 AM50 °FClear.5 mph80%30.02 "Hg10 mi
3:51 AM51 °FClear.No wind77%30.01 "Hg10 mi
2:51 AM51 °FClear.3 mph80%30.01 "Hg10 mi
1:51 AM53 °FClear.No wind74%30.01 "Hg10 mi
12:51 AM54 °FClear.6 mph72%30.01 "Hg10 mi
11:51 PM
Mon, May 23
56 °FClear.6 mph70%30.02 "Hg10 mi
10:51 PM56 °FClear.6 mph70%30.02 "Hg10 mi
9:51 PM59 °FClear.3 mph62%30.01 "Hg10 mi
8:51 PM63 °FSunny.5 mph52%29.99 "Hg10 mi
7:51 PM66 °FSunny.5 mph45%29.99 "Hg10 mi
6:51 PM67 °FSunny.5 mph44%29.99 "Hg10 mi
5:51 PM67 °FSunny.7 mph44%29.99 "Hg10 mi
4:51 PM66 °FSunny.8 mph45%30.00 "Hg10 mi
3:51 PM67 °FSunny.6 mph42%30.02 "Hg10 mi
2:51 PM67 °FSunny.8 mph42%30.04 "Hg10 mi
1:51 PM67 °FSunny.9 mph45%30.06 "Hg10 mi
Weather by CustomWeather, © 2016

See weather overviewHow to use our weather pages